Weather History for KBLF - June, 2012

Change the Weather History Date:

Monday, June 25, 2012

  Actual Average Record
Temperature  
Mean Temperature 73 °F 72 °F  
Max Temperature 84 °F 80 °F 91 °F (1988)
Min Temperature 61 °F 63 °F 45 °F (1979)
Degree Days  
Heating Degree Days 0 0  
Month to date heating degree days 24 21  
Since 1 June heating degree days 24 21  
Since 1 July heating degree days 3622 4587  
Cooling Degree Days 8 7  
Month to date cooling degree days 140 130  
Year to date cooling degree days 312 221  
Since 1 June cooling degree days 140 130  
Growing Degree Days 23 (Base 50)    
Moisture  
Dew Point 57 °F    
Average Humidity 65    
Maximum Humidity 87    
Minimum Humidity 43    
Precipitation  
Precipitation 0.00 in 0.13 in 0.75 in (1987)
Month to date precipitation 1.10 3.49  
Year to date precipitation 23.56 20.31  
Snow  
Snow 0.00 in - - ()
Month to date snowfall 0.0  
Since 1 June snowfall 0.0  
Since 1 July snowfall 23.0  
Snow Depth 0.00 in    
Sea Level Pressure  
Sea Level Pressure 29.84 in    
Wind  
Wind Speed 7 mph (WNW)    
Max Wind Speed 15 mph    
Max Gust Speed 23 mph    
Visibility 10 miles    
Events      
T = Trace of Precipitation, MM = Missing Value Source: NWS Daily Summary

Daily Weather History Graph

Daily Weather History Graph

Search for Another Location

Airport or City:

Trip Planner

Search our weather history database for the weather conditions in past years. The results will help you decide how hot, cold, wet, or windy it might be!

Date:

Astronomy

Jun. 25, 2012 Rise Set
Actual Time 6:05 AM EDT 8:49 PM EDT
Civil Twilight 5:34 AM EDT 9:20 PM EDT
Nautical Twilight 4:56 AM EDT 9:59 PM EDT
Astronomical Twilight 4:12 AM EDT 10:42 PM EDT
Moon 12:06 PM EDT (6/25) No Moon Set
Length of Visible Light 15h 45m
Length of Day
14h 43m
Waxing Crescent, 34% of the Moon is Illuminated
Jun 25
Waxing Crescent
Jun 26
First Quarter
Jul 3
Full
Jul 10
Last Quarter
Jul 19
New

Hourly Weather History & Observations

Time (EDT) Temp. Heat Index Dew Point Humidity Pressure Visibility Wind Dir Wind Speed Gust Speed Precip Events Conditions
12:52 AM 70.0 °F - 61.0 °F 73% 29.91 in 10.0 mi Calm Calm - N/A   Clear
1:52 AM 70.0 °F - 61.0 °F 73% 29.89 in 10.0 mi West 3.5 mph - N/A   Clear
3:52 AM 66.0 °F - 61.0 °F 84% 29.86 in 9.0 mi Calm Calm - N/A   Clear
4:52 AM 64.9 °F - 60.1 °F 84% 29.86 in 10.0 mi WSW 5.8 mph - N/A   Clear
5:52 AM 66.0 °F - 59.0 °F 78% 29.86 in 10.0 mi West 6.9 mph - N/A   Clear
6:52 AM 66.0 °F - 60.1 °F 81% 29.87 in 10.0 mi West 5.8 mph - N/A   Clear
7:52 AM 69.1 °F - 61.0 °F 75% 29.88 in 10.0 mi WSW 5.8 mph - N/A   Clear
8:52 AM 72.0 °F - 61.0 °F 68% 29.88 in 10.0 mi WSW 6.9 mph - N/A   Clear
9:52 AM 77.0 °F - 62.1 °F 60% 29.87 in 10.0 mi West 8.1 mph - N/A   Clear
10:52 AM 79.0 °F - 57.9 °F 48% 29.86 in 10.0 mi WNW 9.2 mph 19.6 mph N/A   Clear
11:52 AM 81.0 °F 81.1 °F 57.9 °F 45% 29.84 in 10.0 mi West 10.4 mph - N/A   Partly Cloudy
12:52 PM 82.0 °F 81.7 °F 57.0 °F 42% 29.83 in - NNW 9.2 mph 20.7 mph N/A   Unknown
1:52 PM 82.0 °F 82.0 °F 57.9 °F 44% 29.81 in 10.0 mi NW 13.8 mph 18.4 mph N/A   Mostly Cloudy
2:52 PM 82.0 °F 82.4 °F 60.1 °F 47% 29.80 in 10.0 mi WNW 9.2 mph - N/A   Mostly Cloudy
3:52 PM 82.9 °F 82.6 °F 57.9 °F 42% 29.79 in 10.0 mi NW 13.8 mph 20.7 mph N/A   Partly Cloudy
4:52 PM 81.0 °F 81.1 °F 57.9 °F 45% 29.80 in 10.0 mi Variable 5.8 mph 19.6 mph N/A   Scattered Clouds
5:52 PM 78.1 °F - 57.9 °F 50% 29.80 in 10.0 mi North 5.8 mph - N/A   Partly Cloudy
6:52 PM 77.0 °F - 57.0 °F 50% 29.81 in 10.0 mi North 8.1 mph - N/A   Mostly Cloudy
7:52 PM 75.0 °F - 52.0 °F 44% 29.81 in 10.0 mi Variable 4.6 mph - N/A   Clear
8:52 PM 71.1 °F - 53.1 °F 53% 29.82 in 10.0 mi Variable 3.5 mph - N/A   Clear
9:52 PM 68.0 °F - 52.0 °F 56% 29.84 in 10.0 mi Calm Calm - N/A   Clear
10:52 PM 64.9 °F - 48.9 °F 56% 29.86 in 10.0 mi NNE 4.6 mph - N/A   Clear
11:52 PM 64.0 °F - 46.0 °F 52% 29.86 in 10.0 mi North 9.2 mph - N/A   Clear